Weather History for Nanaimo Airport, British Columbia

Change the Weather History Date:

Sunday, December 30, 2012

  Actual Average Record
Temperature  
Mean Temperature 28 °F -  
Max Temperature 39 °F 42 °F - ()
Min Temperature 17 °F 30 °F - ()
Degree Days  
Heating Degree Days 36    
Moisture  
Dew Point 31 °F    
Average Humidity 90    
Maximum Humidity 100    
Minimum Humidity 64    
Precipitation  
Precipitation 0.08 in 0.21 in - ()
Sea Level Pressure  
Sea Level Pressure 30.15 in    
Wind  
Wind Speed 3 mph ()    
Max Wind Speed 15 mph    
Max Gust Speed -    
Visibility 17.5 miles    
Events Fog    
T = Trace of Precipitation, MM = Missing Value Source: Averaged Metar Reports

Daily Weather History Graph

Daily Weather History Graph

Search for Another Location

Airport:

Trip Planner

Search our weather history database for the weather conditions in past years. The results will help you decide how hot, cold, wet, or windy it might be!

Date:

Astronomy

Dec. 30, 2012 Rise Set
Actual Time 8:09 AM PST 4:27 PM PST
Civil Twilight 7:32 AM PST 5:04 PM PST
Nautical Twilight 6:52 AM PST 5:44 PM PST
Astronomical Twilight 6:13 AM PST 6:23 PM PST
Moon 7:18 PM PST 9:08 AM PST
Length of Visible Light 9h 31m
Length of Day
8h 17m
Waning Gibbous, 95% of the Moon is Illuminated
Dec 30
Waning Gibbous
Jan 4
Last Quarter
Jan 11
New
Jan 18
First Quarter
Jan 26
Full

Hourly Weather History & Observations

Time (PST) Temp. Windchill Dew Point Humidity Pressure Visibility Wind Dir Wind Speed Gust Speed Precip Events Conditions
4:00 AM 22 °F - 19 °F 81% 29.61 in - NNW 8.1 mph - -  
6:00 AM 33.8 °F - 32.0 °F 93% 30.29 in 20.0 mi Calm Calm - N/A   Partly Cloudy
7:00 AM 32.0 °F - 30.2 °F 93% 30.30 in 20.0 mi Calm Calm - N/A Fog Shallow Fog
8:00 AM 30.2 °F 26.7 °F 30.2 °F 100% 30.30 in 20.0 mi SSW 3.5 mph - N/A Fog Shallow Fog
9:00 AM 32.0 °F - 30.2 °F 93% 30.33 in 15.0 mi Calm Calm - N/A Fog Mostly Cloudy
10:00 AM 26 °F - 21 °F 74% 29.49 in - NNW 9.2 mph - -  
10:00 AM 33.8 °F - 32.0 °F 93% 30.34 in 20.0 mi West 2.3 mph - N/A   Mostly Cloudy
11:00 AM 37.4 °F - 35.6 °F 93% 30.33 in 20.0 mi East 2.3 mph - N/A   Mostly Cloudy
12:00 PM 39.2 °F - 35.6 °F 87% 30.33 in 20.0 mi Calm Calm - N/A   Mostly Cloudy
1:00 PM 39.2 °F 35.9 °F 37.4 °F 93% 30.31 in 20.0 mi South 4.6 mph - N/A   Mostly Cloudy
2:00 PM 39.2 °F 35.9 °F 37.4 °F 93% 30.31 in 20.0 mi South 4.6 mph - N/A   Mostly Cloudy
3:00 PM 39.2 °F 37.0 °F 37.4 °F 93% 30.31 in 15.0 mi SE 3.5 mph - N/A   Overcast
4:00 PM 25 °F - 19 °F 68% 29.47 in - NW 12.7 mph - -  
4:00 PM 39.2 °F - 37.4 °F 93% 30.30 in 15.0 mi Calm Calm - N/A   Overcast
5:00 PM 39.2 °F - 37.4 °F 93% 30.31 in 15.0 mi West 2.3 mph - N/A   Overcast
6:00 PM 37.4 °F - 37.4 °F 100% 30.31 in 15.0 mi West 2.3 mph - N/A   Overcast
7:00 PM 37.4 °F - 37.4 °F 100% 30.30 in 15.0 mi Calm Calm - N/A Fog Shallow Fog
8:00 PM 37.4 °F - 35.6 °F 93% 30.30 in 15.0 mi West 2.3 mph - N/A Fog Overcast
9:00 PM 37.4 °F - 35.6 °F 93% 30.30 in 15.0 mi Calm Calm - N/A Fog Overcast
10:00 PM 17 °F - 10 °F 64% 29.49 in - NW 15.0 mph - -